User: anonymous   Login
Location: Firdgum
(53.2488°N, 5.5615°E)
Time: 08:19:53
(UTC+00:00)
Language:

Cosmos 371 Rocket - Orbit

View from above orbital plane
View from above orbital plane
View from above satellite
View from above satellite

Ground track
Ground track

The orbit data is extracted from the following two-line orbital elements,

1  4579U 70083B   20056.86033476  .00000033  00000-0  13054-4 0  9996
2  4579  74.0041   9.7262 0009799 147.1823 212.9953 14.60467062618371
Epoch (UTC): 25 February 2020 20:38:52
Eccentricity: 0.0009799
inclination: 74.0041°
perigee height: 685 km
apogee height: 698 km
right ascension of ascending node: 9.7262°
argument of perigee: 147.1823°
revolutions per day: 14.60467062
mean anomaly at epoch: 212.9953°
orbit number at epoch: 61837

The dashed part of the orbit path shows where the satellite is in the earth's shadow,  

DLR